This demonstration page uses our WeatherBlox Daily Observations layout. Learn more.

Left ArrowRight Arrow

39.29038, -76.61219

Hourly Observations for September 28, 2020

Temp ( °F °C ) Dew Point ( °F °C ) Humidity (%) Winds ( mph kmh ) Pressure ( in mb ) Visibility ( mi km ) Precip ( " mm )
12:54 am 00:54 Cloudy 69 20.6 66 18.9 90 90 SSW 5 7 29.89 1012 10 16 0.00 0.00
1:54 am 01:54 Mostly Cloudy 69 20.6 65 18.3 87 87 SSW 6 9 29.88 1012 10 16 0.00 0.00
2:54 am 02:54 Mostly Cloudy 68 20 65 18.3 90 90 Calm 29.87 1012 10 16 0.00 0.00
3:54 am 03:54 Mostly Cloudy 67 19.4 65 18.3 93 93 Calm 29.86 1011 10 16 0.00 0.00
4:54 am 04:54 Mostly Cloudy 67 19.4 64 17.8 91 91 WSW 3 6 29.86 1011 9 14 0.00 0.00
5:54 am 05:54 Mostly Cloudy 67 19.4 64 17.8 91 91 Calm 29.85 1011 10 16 0.00 0.00
6:27 am 06:27 Cloudy 67 19.4 64 17.8 91 91 Calm 29.86 1011 10 16 0.00 0.00
6:54 am 06:54 Mostly Cloudy 66 18.9 64 17.8 93 93 Calm 29.87 1012 10 16 0.00 0.00
7:21 am 07:21 Mostly Cloudy 67 19.4 64 17.8 91 91 Calm 29.88 1012 10 16 0.00 0.00
7:54 am 07:54 Mostly Cloudy 67 19.4 64 17.8 91 91 SW 3 6 29.88 1012 10 16 0.00 0.00
8:30 am 08:30 Mostly Cloudy 68 20 65 18.3 90 90 SSW 5 7 29.89 1012 10 16 0.00 0.00
8:54 am 08:54 Cloudy 68 20 65 18.3 90 90 SSW 5 7 29.89 1012 10 16 0.00 0.00
9:54 am 09:54 Mostly Cloudy 72 22.2 65 18.3 79 79 SSW 5 7 29.89 1012 10 16 0.00 0.00
10:54 am 10:54 Mostly Cloudy 74 23.3 65 18.3 74 74 S 6 9 29.91 1013 10 16 0.00 0.00
11:54 am 11:54 Mostly Cloudy 77 25 65 18.3 66 66 SSW 6 9 29.89 1012 10 16 0.00 0.00
12:54 pm 12:54 Mostly Cloudy 80 26.7 66 18.9 62 62 SSE 5 7 29.88 1012 10 16 0.00 0.00
1:54 pm 13:54 Mostly Cloudy 81 27.2 66 18.9 61 61 SSE 5 7 29.86 1011 10 16 0.00 0.00
2:54 pm 14:54 Mostly Cloudy 80 26.7 68 20 67 67 SE 10 17 29.85 1011 10 16 0.00 0.00
3:54 pm 15:54 Mostly Cloudy 81 27.2 69 20.6 67 67 SE 13 20 29.84 1011 10 16 0.00 0.00
4:54 pm 16:54 Partly Cloudy 80 26.7 68 20 67 67 SE 9 15 29.85 1011 10 16 0.00 0.00
5:54 pm 17:54 Mostly Cloudy with Light Rain 74 23.3 68 20 82 82 SSE 13 20 29.85 1011 5 8 0.05 1.27
6:54 pm 18:54 Partly Cloudy 72 22.2 67 19.4 84 84 SE 7 11 29.84 1011 10 16 0.00 0.00
7:54 pm 19:54 Partly Cloudy 71 21.7 67 19.4 87 87 SSE 6 9 29.84 1011 10 16 0.00 0.00
8:54 pm 20:54 Mostly Clear 71 21.7 67 19.4 87 87 SE 9 15 29.85 1011 10 16 0.00 0.00
9:54 pm 21:54 Mostly Clear 70 21.1 67 19.4 90 90 SE 6 9 29.86 1011 10 16 0.00 0.00
10:54 pm 22:54 Partly Cloudy 70 21.1 66 18.9 87 87 SSE 5 7 29.87 1011 10 16 0.00 0.00
11:54 pm 23:54 Mostly Cloudy 70 21.1 66 18.9 87 87 S 5 7 29.86 1011 10 16 0.00 0.00

Powered by AerisWeather